Allentown, PA

1:07 PM EDT on July 24, 2017 (GMT -0400)
Lehigh Valley International

Weather History for KABE - October, 2013

Change the Weather History Date:

Wednesday, October 30, 2013

  Actual Average Record
Temperature  
Mean Temperature 50 °F 48 °F  
Max Temperature 60 °F 59 °F 80 °F (2016)
Min Temperature 40 °F 37 °F 25 °F (1962)
Degree Days  
Heating Degree Days 15 17  
Month to date heating degree days 298 379  
Since 1 July heating degree days 422 494  
Cooling Degree Days 0 0  
Month to date cooling degree days 24 3  
Year to date cooling degree days 927 753  
Moisture  
Dew Point 40 °F    
Average Humidity 77    
Maximum Humidity 93    
Minimum Humidity 61    
Precipitation  
Precipitation T in 0.10 in 1.50 in (1935)
Month to date precipitation 2.37 3.77  
Year to date precipitation 39.29 38.16  
Snow  
Snow 0.00 in 0.00 in T in (2002)
Month to date snowfall 0.0 0.0  
Since 1 July snowfall 0.0 0.0  
Since 1 September snowfall 0.0 0.0  
Snow Depth 0.00 in    
Sea Level Pressure  
Sea Level Pressure 30.26 in    
Wind  
Wind Speed 1 mph (ENE)    
Max Wind Speed 7 mph    
Max Gust Speed 8 mph    
Visibility 8 miles    
Events Snow    
T = Trace of Precipitation, MM = Missing Value Source: NWS Daily Summary

Daily Weather History Graph

Daily Weather History Graph

Search for Another Location

Airport or City:

Trip Planner

Search our weather history database for the weather conditions in past years. The results will help you decide how hot, cold, wet, or windy it might be!

Date:

Astronomy

Oct. 30, 2013 Rise Set
Actual Time 7:29 AM EDT 6:00 PM EDT
Civil Twilight 7:01 AM EDT 6:28 PM EDT
Nautical Twilight 6:29 AM EDT 7:00 PM EDT
Astronomical Twilight 5:57 AM EDT 7:32 PM EDT
Moon 3:15 AM EDT (10/30) 3:45 PM EDT (10/30)
Length of Visible Light 11h 27m
Length of Day
10h 30m
Waning Crescent, 17% of the Moon is Illuminated
Oct 30
Waning Crescent
Nov 3
New
Nov 10
First Quarter
Nov 17
Full
Nov 25
Last Quarter

Hourly Weather History & Observations

Time (EDT) Temp. Windchill Dew Point Humidity Pressure Visibility Wind Dir Wind Speed Gust Speed Precip Events Conditions
12:51 AM 37.9 °F 35.5 °F 30.0 °F 73% 30.34 in 10.0 mi NE 3.5 mph - 0.00 in Snow Light Snow
1:27 AM 39.2 °F 37.0 °F 30.2 °F 70% 30.33 in 10.0 mi ENE 3.5 mph - 0.00 in   Mostly Cloudy
1:51 AM 41.0 °F - 30.9 °F 67% 30.34 in 10.0 mi Calm Calm - 0.00 in   Mostly Cloudy
2:51 AM 39.9 °F - 33.1 °F 77% 30.33 in 10.0 mi Calm Calm - N/A   Mostly Cloudy
3:51 AM 43.0 °F 41.3 °F 32.0 °F 65% 30.30 in 10.0 mi ESE 3.5 mph - N/A   Overcast
4:51 AM 42.1 °F 39.2 °F 34.0 °F 73% 30.29 in 10.0 mi NE 4.6 mph - N/A   Overcast
5:51 AM 44.1 °F - 34.0 °F 68% 30.30 in 10.0 mi Calm Calm - N/A   Overcast
6:44 AM 44.6 °F - 33.8 °F 66% 30.29 in 10.0 mi Calm Calm - N/A   Overcast
6:51 AM 45.0 °F 43.5 °F 34.0 °F 65% 30.30 in 10.0 mi ESE 3.5 mph - N/A   Overcast
7:51 AM 45.0 °F 43.5 °F 34.0 °F 65% 30.30 in 10.0 mi East 3.5 mph - N/A   Overcast
8:51 AM 46.0 °F 44.8 °F 35.1 °F 66% 30.30 in 10.0 mi ENE 3.5 mph - N/A   Overcast
9:51 AM 48.0 °F - 36.0 °F 63% 30.29 in 10.0 mi Calm Calm - N/A   Overcast
10:51 AM 48.0 °F - 37.9 °F 68% 30.29 in 10.0 mi Calm Calm - N/A   Overcast
11:51 AM 50.0 °F - 41.0 °F 71% 30.28 in 10.0 mi Calm Calm - N/A   Overcast
12:51 PM 53.1 °F - 44.1 °F 71% 30.26 in 10.0 mi Calm Calm - N/A   Overcast
1:51 PM 55.0 °F - 46.0 °F 72% 30.23 in 7.0 mi Calm Calm - N/A   Overcast
1:58 PM 55.4 °F - 46.4 °F 72% 30.22 in 7.0 mi Calm Calm - N/A   Overcast
2:51 PM 57.0 °F - 46.9 °F 69% 30.20 in 8.0 mi Calm Calm - N/A   Overcast
3:22 PM 57.2 °F - 46.4 °F 67% 30.19 in 7.0 mi Calm Calm - N/A   Scattered Clouds
3:51 PM 59.0 °F - 46.9 °F 64% 30.19 in 7.0 mi Calm Calm - N/A   Scattered Clouds
4:51 PM 59.0 °F - 46.9 °F 64% 30.19 in 8.0 mi Calm Calm - N/A   Partly Cloudy
5:51 PM 57.0 °F - 46.9 °F 69% 30.18 in 8.0 mi ESE 3.5 mph - N/A   Clear
6:51 PM 53.1 °F - 46.9 °F 80% 30.21 in 8.0 mi Calm Calm - N/A   Clear
7:51 PM 48.0 °F - 43.0 °F 83% 30.22 in 8.0 mi Calm Calm - N/A   Partly Cloudy
8:51 PM 48.0 °F - 44.1 °F 86% 30.22 in 7.0 mi Calm Calm - N/A   Scattered Clouds
9:28 PM 44.6 °F - 42.8 °F 93% 30.23 in 6.0 mi Calm Calm - N/A   Mostly Cloudy
9:42 PM 46.4 °F 45.2 °F 42.8 °F 87% 30.23 in 7.0 mi ENE 3.5 mph - N/A   Mostly Cloudy
9:51 PM 48.0 °F - 45.0 °F 89% 30.24 in 6.0 mi ENE 3.5 mph - N/A   Overcast
10:51 PM 51.1 °F - 48.0 °F 89% 30.25 in 5.0 mi Calm Calm - N/A   Overcast
11:12 PM 50.0 °F - 46.4 °F 87% 30.23 in 6.0 mi Calm Calm - N/A   Overcast
11:51 PM 48.9 °F - 46.0 °F 90% 30.23 in 6.0 mi Calm Calm - N/A   Overcast